owner,sensor,date,latitude,longitude,vertical_datum,sea_water_temperature,qcFlag
BP,ioos:station:wmo:42369:2,2021-02-01T00:19:00Z,27.2041,-90.2742,448.6,8.3,11113222
BP,ioos:station:wmo:42369:2,2021-02-01T00:39:00Z,27.2035,-90.2744,449.0,8.3,11113222
BP,ioos:station:wmo:42369:2,2021-02-01T00:59:00Z,27.2034,-90.2745,449.0,8.3,11113222
BP,ioos:station:wmo:42369:2,2021-02-01T01:19:00Z,27.2027,-90.2747,449.5,8.3,11113222
BP,ioos:station:wmo:42369:2,2021-02-01T01:39:00Z,27.2025,-90.2748,448.4,8.4,11113222
BP,ioos:station:wmo:42369:2,2021-02-01T01:59:00Z,27.2023,-90.2749,449.0,8.4,11113222
BP,ioos:station:wmo:42369:2,2021-02-01T02:19:00Z,27.2022,-90.2750,448.5,8.4,11113222
BP,ioos:station:wmo:42369:2,2021-02-01T02:39:00Z,27.2019,-90.2751,449.3,8.4,11113222
BP,ioos:station:wmo:42369:2,2021-02-01T02:59:00Z,27.2017,-90.2753,449.2,8.4,11113222
BP,ioos:station:wmo:42369:2,2021-02-01T03:19:00Z,27.2014,-90.2755,448.5,8.4,11113222
BP,ioos:station:wmo:42369:2,2021-02-01T03:39:00Z,27.2011,-90.2756,449.2,8.4,11113222
BP,ioos:station:wmo:42369:2,2021-02-01T03:59:00Z,27.2008,-90.2759,449.4,8.3,11113222
BP,ioos:station:wmo:42369:2,2021-02-01T04:19:00Z,27.2005,-90.2762,449.7,8.3,11113222
BP,ioos:station:wmo:42369:2,2021-02-01T04:39:00Z,27.2002,-90.2766,450.1,8.3,11113222
BP,ioos:station:wmo:42369:2,2021-02-01T04:59:00Z,27.2001,-90.2767,449.6,8.3,11113222
BP,ioos:station:wmo:42369:2,2021-02-01T05:19:00Z,27.2000,-90.2770,449.5,8.3,11113222
BP,ioos:station:wmo:42369:2,2021-02-01T05:39:00Z,27.1999,-90.2771,449.4,8.3,11113222
BP,ioos:station:wmo:42369:2,2021-02-01T05:59:00Z,27.1998,-90.2772,450.0,8.3,11113222
BP,ioos:station:wmo:42369:2,2021-02-01T06:19:00Z,27.1997,-90.2773,449.9,8.3,11113222
BP,ioos:station:wmo:42369:2,2021-02-01T06:39:00Z,27.1998,-90.2774,449.3,8.2,11113222
BP,ioos:station:wmo:42369:2,2021-02-01T06:59:00Z,27.1997,-90.2774,449.1,8.3,11113222
BP,ioos:station:wmo:42369:2,2021-02-01T07:19:00Z,27.1996,-90.2776,448.6,8.3,11113222
BP,ioos:station:wmo:42369:2,2021-02-01T07:39:00Z,27.1995,-90.2779,447.9,8.3,11113222
BP,ioos:station:wmo:42369:2,2021-02-01T07:59:00Z,27.1995,-90.2781,447.9,8.3,11113222
BP,ioos:station:wmo:42369:2,2021-02-01T08:19:00Z,27.1994,-90.2782,448.6,8.3,11113222
BP,ioos:station:wmo:42369:2,2021-02-01T08:39:00Z,27.1994,-90.2783,447.5,8.3,11113222
BP,ioos:station:wmo:42369:2,2021-02-01T08:59:00Z,27.1994,-90.2784,447.5,8.3,11113222
BP,ioos:station:wmo:42369:2,2021-02-01T09:19:00Z,27.1994,-90.2784,447.0,8.3,11113222
BP,ioos:station:wmo:42369:2,2021-02-01T09:39:00Z,27.1994,-90.2783,447.5,8.3,11113222
BP,ioos:station:wmo:42369:2,2021-02-01T09:59:00Z,27.1995,-90.2783,447.4,8.3,11113222
BP,ioos:station:wmo:42369:2,2021-02-01T10:19:00Z,27.1996,-90.2781,447.6,8.3,11113222
BP,ioos:station:wmo:42369:2,2021-02-01T10:39:00Z,27.1998,-90.2778,447.4,8.3,11113222
BP,ioos:station:wmo:42369:2,2021-02-01T10:59:00Z,27.1999,-90.2776,447.0,8.3,11113222
BP,ioos:station:wmo:42369:2,2021-02-01T11:19:00Z,27.2001,-90.2775,446.8,8.3,11113222
BP,ioos:station:wmo:42369:2,2021-02-01T11:39:00Z,27.2001,-90.2773,447.8,8.4,11113222
BP,ioos:station:wmo:42369:2,2021-02-01T11:59:00Z,27.2002,-90.2772,447.4,8.4,11113222
BP,ioos:station:wmo:42369:2,2021-02-01T12:19:00Z,27.2003,-90.2772,447.1,8.4,11113222
BP,ioos:station:wmo:42369:2,2021-02-01T12:39:00Z,27.2006,-90.2769,447.7,8.5,11113222
BP,ioos:station:wmo:42369:2,2021-02-01T12:59:00Z,27.2008,-90.2767,446.6,8.5,11113222
BP,ioos:station:wmo:42369:2,2021-02-01T13:19:00Z,27.2010,-90.2766,447.6,8.5,11113222
BP,ioos:station:wmo:42369:2,2021-02-01T13:39:00Z,27.2011,-90.2765,446.2,8.5,11113222
BP,ioos:station:wmo:42369:2,2021-02-01T13:59:00Z,27.2014,-90.2764,446.5,8.5,11113222
BP,ioos:station:wmo:42369:2,2021-02-01T14:19:00Z,27.2015,-90.2764,446.7,8.5,11113222
BP,ioos:station:wmo:42369:2,2021-02-01T14:39:00Z,27.2016,-90.2765,447.1,8.5,11113222
BP,ioos:station:wmo:42369:2,2021-02-01T14:59:00Z,27.2018,-90.2763,446.7,8.5,11113222
BP,ioos:station:wmo:42369:2,2021-02-01T15:19:00Z,27.2019,-90.2763,447.2,8.5,11113222
BP,ioos:station:wmo:42369:2,2021-02-01T15:39:00Z,27.2019,-90.2765,446.7,8.5,11113222
BP,ioos:station:wmo:42369:2,2021-02-01T15:59:00Z,27.2019,-90.2765,447.0,8.5,11113222
BP,ioos:station:wmo:42369:2,2021-02-01T16:19:00Z,27.2020,-90.2766,446.6,8.5,11113222
BP,ioos:station:wmo:42369:2,2021-02-01T16:39:00Z,27.2021,-90.2765,446.6,8.5,11113222
BP,ioos:station:wmo:42369:2,2021-02-01T16:59:00Z,27.2022,-90.2765,446.6,8.5,11113222
BP,ioos:station:wmo:42369:2,2021-02-01T17:19:00Z,27.2024,-90.2765,446.1,8.5,11113222
BP,ioos:station:wmo:42369:2,2021-02-01T17:39:00Z,27.2025,-90.2766,445.7,8.5,11113222
BP,ioos:station:wmo:42369:2,2021-02-01T17:59:00Z,27.2027,-90.2764,446.1,8.6,11113222
BP,ioos:station:wmo:42369:2,2021-02-01T18:19:00Z,27.2029,-90.2763,446.1,8.6,11113222
BP,ioos:station:wmo:42369:2,2021-02-01T18:39:00Z,27.2031,-90.2762,445.7,8.7,11113222
BP,ioos:station:wmo:42369:2,2021-02-01T18:59:00Z,27.2033,-90.2761,446.1,8.6,11113222
BP,ioos:station:wmo:42369:2,2021-02-01T19:19:00Z,27.2036,-90.2761,445.8,8.6,11113222
BP,ioos:station:wmo:42369:2,2021-02-01T19:39:00Z,27.2039,-90.2759,447.2,8.6,11113222
BP,ioos:station:wmo:42369:2,2021-02-01T19:59:00Z,27.2041,-90.2759,445.9,8.6,11113222
BP,ioos:station:wmo:42369:2,2021-02-01T20:19:00Z,27.2044,-90.2758,445.4,8.6,11113222
BP,ioos:station:wmo:42369:2,2021-02-01T20:39:00Z,27.2047,-90.2756,446.0,8.5,11113222
BP,ioos:station:wmo:42369:2,2021-02-01T20:59:00Z,27.2049,-90.2755,445.9,8.5,11113222
BP,ioos:station:wmo:42369:2,2021-02-01T21:19:00Z,27.2051,-90.2754,446.2,8.5,11113222
BP,ioos:station:wmo:42369:2,2021-02-01T21:39:00Z,27.2051,-90.2753,446.2,8.5,11113222
BP,ioos:station:wmo:42369:2,2021-02-01T21:59:00Z,27.2052,-90.2752,446.0,8.5,11113222
BP,ioos:station:wmo:42369:2,2021-02-01T22:19:00Z,27.2053,-90.2750,446.6,8.4,11113222
BP,ioos:station:wmo:42369:2,2021-02-01T22:39:00Z,27.2053,-90.2748,446.8,8.4,11113222
BP,ioos:station:wmo:42369:2,2021-02-01T22:59:00Z,27.2054,-90.2747,445.9,8.5,11113222
BP,ioos:station:wmo:42369:2,2021-02-01T23:19:00Z,27.2053,-90.2747,446.5,8.5,11113222
BP,ioos:station:wmo:42369:2,2021-02-01T23:39:00Z,27.2052,-90.2747,446.0,8.5,11113222
BP,ioos:station:wmo:42369:2,2021-02-01T23:59:00Z,27.2052,-90.2747,446.4,8.4,11113222
BP,ioos:station:wmo:42369:2,2021-02-02T00:19:00Z,27.2047,-90.2747,446.5,8.3,11113222
BP,ioos:station:wmo:42369:2,2021-02-02T00:39:00Z,27.2044,-90.2746,446.4,8.3,11113222
BP,ioos:station:wmo:42369:2,2021-02-02T00:59:00Z,27.2042,-90.2745,446.7,8.3,11113222
BP,ioos:station:wmo:42369:2,2021-02-02T01:19:00Z,27.2041,-90.2745,446.9,8.2,11113222
BP,ioos:station:wmo:42369:2,2021-02-02T01:39:00Z,27.2039,-90.2746,447.0,8.2,11113222
BP,ioos:station:wmo:42369:2,2021-02-02T01:59:00Z,27.2037,-90.2746,447.1,8.2,11113222
BP,ioos:station:wmo:42369:2,2021-02-02T02:19:00Z,27.2035,-90.2747,447.2,8.3,11113222
BP,ioos:station:wmo:42369:2,2021-02-02T02:39:00Z,27.2035,-90.2746,446.4,8.3,11113222
BP,ioos:station:wmo:42369:2,2021-02-02T02:59:00Z,27.2034,-90.2747,447.3,8.3,11113222
BP,ioos:station:wmo:42369:2,2021-02-02T03:19:00Z,27.2033,-90.2747,447.2,8.4,11113222
BP,ioos:station:wmo:42369:2,2021-02-02T03:39:00Z,27.2030,-90.2747,447.8,8.5,11113222
BP,ioos:station:wmo:42369:2,2021-02-02T03:59:00Z,27.2029,-90.2749,447.1,8.4,11113222
BP,ioos:station:wmo:42369:2,2021-02-02T04:19:00Z,27.2027,-90.2750,447.1,8.5,11113222
BP,ioos:station:wmo:42369:2,2021-02-02T04:39:00Z,27.2025,-90.2751,447.0,8.4,11113222
BP,ioos:station:wmo:42369:2,2021-02-02T04:59:00Z,27.2022,-90.2753,447.3,8.4,11113222
BP,ioos:station:wmo:42369:2,2021-02-02T05:19:00Z,27.2019,-90.2755,447.1,8.5,11113222
BP,ioos:station:wmo:42369:2,2021-02-02T05:39:00Z,27.2017,-90.2757,447.4,8.5,11113222
BP,ioos:station:wmo:42369:2,2021-02-02T05:59:00Z,27.2016,-90.2759,447.3,8.5,11113222
BP,ioos:station:wmo:42369:2,2021-02-02T06:19:00Z,27.2015,-90.2760,446.4,8.5,11113222
BP,ioos:station:wmo:42369:2,2021-02-02T06:39:00Z,27.2014,-90.2760,447.3,8.4,11113222
BP,ioos:station:wmo:42369:2,2021-02-02T06:59:00Z,27.2013,-90.2760,446.8,8.5,11113222
BP,ioos:station:wmo:42369:2,2021-02-02T07:19:00Z,27.2012,-90.2761,446.5,8.4,11113222
BP,ioos:station:wmo:42369:2,2021-02-02T07:39:00Z,27.2010,-90.2763,446.8,8.5,11113222
BP,ioos:station:wmo:42369:2,2021-02-02T07:59:00Z,27.2008,-90.2765,446.7,8.5,11113222
BP,ioos:station:wmo:42369:2,2021-02-02T08:19:00Z,27.2005,-90.2768,447.3,8.5,11113222
BP,ioos:station:wmo:42369:2,2021-02-02T08:39:00Z,27.2004,-90.2771,447.0,8.5,11113222
BP,ioos:station:wmo:42369:2,2021-02-02T08:59:00Z,27.2002,-90.2774,446.8,8.5,11113222
BP,ioos:station:wmo:42369:2,2021-02-02T09:19:00Z,27.2000,-90.2776,447.5,8.5,11113222
BP,ioos:station:wmo:42369:2,2021-02-02T09:39:00Z,27.1999,-90.2778,446.8,8.5,11113222
BP,ioos:station:wmo:42369:2,2021-02-02T09:59:00Z,27.1997,-90.2781,447.2,8.4,11113222
BP,ioos:station:wmo:42369:2,2021-02-02T10:19:00Z,27.1995,-90.2784,446.5,8.5,11113222
BP,ioos:station:wmo:42369:2,2021-02-02T10:39:00Z,27.1994,-90.2787,446.6,8.5,11113222
BP,ioos:station:wmo:42369:2,2021-02-02T10:59:00Z,27.1993,-90.2791,446.5,8.5,11113222
BP,ioos:station:wmo:42369:2,2021-02-02T11:19:00Z,27.1992,-90.2795,446.0,8.5,11113222
BP,ioos:station:wmo:42369:2,2021-02-02T11:39:00Z,27.1990,-90.2798,446.8,8.5,11113222
BP,ioos:station:wmo:42369:2,2021-02-02T11:59:00Z,27.1990,-90.2800,446.2,8.5,11113222
BP,ioos:station:wmo:42369:2,2021-02-02T12:19:00Z,27.1990,-90.2802,445.9,8.4,11113222
BP,ioos:station:wmo:42369:2,2021-02-02T12:39:00Z,27.1990,-90.2804,446.2,8.5,11113222
BP,ioos:station:wmo:42369:2,2021-02-02T12:59:00Z,27.1990,-90.2807,446.2,8.5,11113222
BP,ioos:station:wmo:42369:2,2021-02-02T13:19:00Z,27.1991,-90.2809,445.5,8.5,11113222
BP,ioos:station:wmo:42369:2,2021-02-02T13:39:00Z,27.1992,-90.2811,445.5,8.6,11113222
BP,ioos:station:wmo:42369:2,2021-02-02T13:59:00Z,27.1993,-90.2815,445.3,8.4,11113222
BP,ioos:station:wmo:42369:2,2021-02-02T14:19:00Z,27.1993,-90.2819,445.5,8.5,11113222
BP,ioos:station:wmo:42369:2,2021-02-02T14:39:00Z,27.1995,-90.2822,445.1,8.4,11113222
BP,ioos:station:wmo:42369:2,2021-02-02T14:59:00Z,27.1998,-90.2824,445.2,8.5,11113222
BP,ioos:station:wmo:42369:2,2021-02-02T15:19:00Z,27.2001,-90.2826,445.0,8.6,11113222
BP,ioos:station:wmo:42369:2,2021-02-02T15:39:00Z,27.2003,-90.2828,445.2,8.7,11113222
BP,ioos:station:wmo:42369:2,2021-02-02T15:59:00Z,27.2007,-90.2830,445.0,8.7,11113222
BP,ioos:station:wmo:42369:2,2021-02-02T16:19:00Z,27.2010,-90.2831,445.2,8.6,11113222
BP,ioos:station:wmo:42369:2,2021-02-02T16:39:00Z,27.2015,-90.2831,444.5,8.6,11113222
BP,ioos:station:wmo:42369:2,2021-02-02T16:59:00Z,27.2021,-90.2831,445.2,8.6,11113222
BP,ioos:station:wmo:42369:2,2021-02-02T17:19:00Z,27.2029,-90.2830,444.9,8.6,11113222
BP,ioos:station:wmo:42369:2,2021-02-02T17:39:00Z,27.2037,-90.2830,444.6,8.6,11113222
BP,ioos:station:wmo:42369:2,2021-02-02T17:59:00Z,27.2046,-90.2828,445.1,8.6,11113222
BP,ioos:station:wmo:42369:2,2021-02-02T18:19:00Z,27.2057,-90.2825,445.2,8.5,11113222
BP,ioos:station:wmo:42369:2,2021-02-02T18:39:00Z,27.2067,-90.2822,444.6,8.5,11113222
BP,ioos:station:wmo:42369:2,2021-02-02T18:59:00Z,27.2078,-90.2819,445.2,8.6,11113222
BP,ioos:station:wmo:42369:2,2021-02-02T19:19:00Z,27.2089,-90.2816,444.8,8.6,11113222
BP,ioos:station:wmo:42369:2,2021-02-02T19:39:00Z,27.2100,-90.2810,445.2,8.7,11113222
BP,ioos:station:wmo:42369:2,2021-02-02T19:59:00Z,27.2110,-90.2802,444.5,8.7,11113222
BP,ioos:station:wmo:42369:2,2021-02-02T20:19:00Z,27.2117,-90.2795,444.7,8.7,11113222
BP,ioos:station:wmo:42369:2,2021-02-02T20:39:00Z,27.2118,-90.2789,445.2,8.6,11113222
BP,ioos:station:wmo:42369:2,2021-02-02T20:59:00Z,27.2117,-90.2785,445.5,8.5,11113222
BP,ioos:station:wmo:42369:2,2021-02-02T21:19:00Z,27.2116,-90.2781,445.0,8.5,11113222
BP,ioos:station:wmo:42369:2,2021-02-02T21:39:00Z,27.2114,-90.2778,445.3,8.4,11113222
BP,ioos:station:wmo:42369:2,2021-02-02T21:59:00Z,27.2112,-90.2774,445.9,8.5,11113222
BP,ioos:station:wmo:42369:2,2021-02-02T22:19:00Z,27.2110,-90.2771,445.2,8.5,11113222
BP,ioos:station:wmo:42369:2,2021-02-02T22:39:00Z,27.2109,-90.2769,445.5,8.4,11113222
BP,ioos:station:wmo:42369:2,2021-02-02T22:59:00Z,27.2107,-90.2767,445.8,8.4,11113222
BP,ioos:station:wmo:42369:2,2021-02-02T23:19:00Z,27.2105,-90.2764,446.1,8.4,11113222
BP,ioos:station:wmo:42369:2,2021-02-02T23:39:00Z,27.2103,-90.2761,445.0,8.5,11113222
BP,ioos:station:wmo:42369:2,2021-02-02T23:59:00Z,27.2101,-90.2759,445.3,8.5,11113222
BP,ioos:station:wmo:42369:2,2021-02-03T00:19:00Z,27.2098,-90.2757,446.2,8.4,11113222
BP,ioos:station:wmo:42369:2,2021-02-03T00:39:00Z,27.2094,-90.2755,445.4,8.5,11113222
BP,ioos:station:wmo:42369:2,2021-02-03T00:59:00Z,27.2091,-90.2753,445.7,8.5,11113222
BP,ioos:station:wmo:42369:2,2021-02-03T01:19:00Z,27.2089,-90.2752,445.9,8.5,11113222
BP,ioos:station:wmo:42369:2,2021-02-03T01:39:00Z,27.2087,-90.2750,445.3,8.5,11113222
BP,ioos:station:wmo:42369:2,2021-02-03T01:59:00Z,27.2085,-90.2749,446.7,8.5,11113222
BP,ioos:station:wmo:42369:2,2021-02-03T02:19:00Z,27.2085,-90.2748,445.8,8.5,11113222
BP,ioos:station:wmo:42369:2,2021-02-03T02:39:00Z,27.2084,-90.2748,445.7,8.4,11113222
BP,ioos:station:wmo:42369:2,2021-02-03T02:59:00Z,27.2083,-90.2748,445.8,8.3,11113222
BP,ioos:station:wmo:42369:2,2021-02-03T03:19:00Z,27.2082,-90.2748,445.4,8.4,11113222
BP,ioos:station:wmo:42369:2,2021-02-03T03:39:00Z,27.2081,-90.2747,445.6,8.4,11113222
BP,ioos:station:wmo:42369:2,2021-02-03T03:59:00Z,27.2080,-90.2747,445.0,8.4,11113222
BP,ioos:station:wmo:42369:2,2021-02-03T04:19:00Z,27.2079,-90.2747,445.6,8.5,11113222
BP,ioos:station:wmo:42369:2,2021-02-03T04:39:00Z,27.2078,-90.2747,446.1,8.5,11113222
BP,ioos:station:wmo:42369:2,2021-02-03T04:59:00Z,27.2077,-90.2747,446.2,8.5,11113222
BP,ioos:station:wmo:42369:2,2021-02-03T05:19:00Z,27.2075,-90.2747,446.0,8.5,11113222
BP,ioos:station:wmo:42369:2,2021-02-03T05:39:00Z,27.2074,-90.2747,446.3,8.5,11113222
BP,ioos:station:wmo:42369:2,2021-02-03T05:59:00Z,27.2073,-90.2747,445.7,8.6,11113222
BP,ioos:station:wmo:42369:2,2021-02-03T06:19:00Z,27.2073,-90.2747,445.0,8.6,11113222
BP,ioos:station:wmo:42369:2,2021-02-03T06:39:00Z,27.2072,-90.2747,445.8,8.5,11113222
BP,ioos:station:wmo:42369:2,2021-02-03T06:59:00Z,27.2072,-90.2747,446.0,8.5,11113222
BP,ioos:station:wmo:42369:2,2021-02-03T07:19:00Z,27.2071,-90.2748,445.8,8.6,11113222
BP,ioos:station:wmo:42369:2,2021-02-03T07:39:00Z,27.2070,-90.2748,445.7,8.6,11113222
BP,ioos:station:wmo:42369:2,2021-02-03T07:59:00Z,27.2070,-90.2749,445.5,8.5,11113222
BP,ioos:station:wmo:42369:2,2021-02-03T08:19:00Z,27.2070,-90.2750,445.6,8.6,11113222
BP,ioos:station:wmo:42369:2,2021-02-03T08:39:00Z,27.2070,-90.2751,445.1,8.5,11113222
BP,ioos:station:wmo:42369:2,2021-02-03T08:59:00Z,27.2070,-90.2752,445.3,8.5,11113222
BP,ioos:station:wmo:42369:2,2021-02-03T09:19:00Z,27.2070,-90.2753,445.6,8.6,11113222
BP,ioos:station:wmo:42369:2,2021-02-03T09:39:00Z,27.2072,-90.2755,445.7,8.7,11113222
BP,ioos:station:wmo:42369:2,2021-02-03T09:59:00Z,27.2072,-90.2756,445.6,8.6,11113222
BP,ioos:station:wmo:42369:2,2021-02-03T10:19:00Z,27.2073,-90.2757,445.5,8.5,11113222
BP,ioos:station:wmo:42369:2,2021-02-03T10:39:00Z,27.2074,-90.2759,445.9,8.6,11113222
BP,ioos:station:wmo:42369:2,2021-02-03T10:59:00Z,27.2076,-90.2761,445.4,8.6,11113222
BP,ioos:station:wmo:42369:2,2021-02-03T11:19:00Z,27.2078,-90.2764,445.9,8.7,11113222
BP,ioos:station:wmo:42369:2,2021-02-03T11:39:00Z,27.2081,-90.2769,446.0,8.6,11113222
BP,ioos:station:wmo:42369:2,2021-02-03T11:59:00Z,27.2085,-90.2774,446.4,8.7,11113222
BP,ioos:station:wmo:42369:2,2021-02-03T12:19:00Z,27.2089,-90.2779,445.9,8.6,11113222
BP,ioos:station:wmo:42369:2,2021-02-03T12:39:00Z,27.2093,-90.2783,446.1,8.6,11113222
BP,ioos:station:wmo:42369:2,2021-02-03T12:59:00Z,27.2097,-90.2788,445.9,8.8,11113222
BP,ioos:station:wmo:42369:2,2021-02-03T13:19:00Z,27.2101,-90.2793,446.0,8.8,11113222
BP,ioos:station:wmo:42369:2,2021-02-03T13:39:00Z,27.2106,-90.2797,446.1,8.7,11113222
BP,ioos:station:wmo:42369:2,2021-02-03T13:59:00Z,27.2111,-90.2801,446.6,8.6,11113222
BP,ioos:station:wmo:42369:2,2021-02-03T14:19:00Z,27.2115,-90.2806,446.6,8.7,11113222
BP,ioos:station:wmo:42369:2,2021-02-03T14:39:00Z,27.2118,-90.2811,446.5,8.7,11113222
BP,ioos:station:wmo:42369:2,2021-02-03T14:59:00Z,27.2120,-90.2812,446.3,8.7,11113222
BP,ioos:station:wmo:42369:2,2021-02-03T15:19:00Z,27.2121,-90.2814,446.6,8.7,11113222
BP,ioos:station:wmo:42369:2,2021-02-03T15:39:00Z,27.2122,-90.2815,445.7,8.6,11113222
BP,ioos:station:wmo:42369:2,2021-02-03T15:59:00Z,27.2123,-90.2816,445.7,8.6,11113222
BP,ioos:station:wmo:42369:2,2021-02-03T16:19:00Z,27.2124,-90.2816,445.9,8.5,11113222
BP,ioos:station:wmo:42369:2,2021-02-03T16:39:00Z,27.2125,-90.2814,446.7,8.5,11113222
BP,ioos:station:wmo:42369:2,2021-02-03T16:59:00Z,27.2125,-90.2814,446.8,8.6,11113222
BP,ioos:station:wmo:42369:2,2021-02-03T17:19:00Z,27.2126,-90.2813,447.2,8.6,11113222
BP,ioos:station:wmo:42369:2,2021-02-03T17:39:00Z,27.2126,-90.2812,447.3,8.6,11113222
BP,ioos:station:wmo:42369:2,2021-02-03T17:59:00Z,27.2127,-90.2810,447.0,8.5,11113222
BP,ioos:station:wmo:42369:2,2021-02-03T18:19:00Z,27.2127,-90.2809,447.5,8.5,11113222
BP,ioos:station:wmo:42369:2,2021-02-03T18:39:00Z,27.2127,-90.2807,447.1,8.5,11113222
BP,ioos:station:wmo:42369:2,2021-02-03T18:59:00Z,27.2128,-90.2806,447.6,8.4,11113222
BP,ioos:station:wmo:42369:2,2021-02-03T19:19:00Z,27.2127,-90.2804,447.1,8.4,11113222
BP,ioos:station:wmo:42369:2,2021-02-03T19:39:00Z,27.2127,-90.2803,447.6,8.5,11113222
BP,ioos:station:wmo:42369:2,2021-02-03T19:59:00Z,27.2127,-90.2802,447.0,8.4,11113222
BP,ioos:station:wmo:42369:2,2021-02-03T20:19:00Z,27.2127,-90.2801,447.7,8.6,11113222
BP,ioos:station:wmo:42369:2,2021-02-03T20:39:00Z,27.2126,-90.2800,447.0,8.6,11113222
BP,ioos:station:wmo:42369:2,2021-02-03T20:59:00Z,27.2126,-90.2798,446.9,8.6,11113222
BP,ioos:station:wmo:42369:2,2021-02-03T21:19:00Z,27.2125,-90.2796,447.1,8.4,11113222
BP,ioos:station:wmo:42369:2,2021-02-03T21:39:00Z,27.2124,-90.2793,447.5,8.4,11113222
BP,ioos:station:wmo:42369:2,2021-02-03T21:59:00Z,27.2123,-90.2791,446.6,8.4,11113222
BP,ioos:station:wmo:42369:2,2021-02-03T22:19:00Z,27.2122,-90.2789,447.5,8.5,11113222
BP,ioos:station:wmo:42369:2,2021-02-03T22:39:00Z,27.2121,-90.2787,446.8,8.4,11113222
BP,ioos:station:wmo:42369:2,2021-02-03T22:59:00Z,27.2120,-90.2785,447.2,8.4,11113222
BP,ioos:station:wmo:42369:2,2021-02-03T23:19:00Z,27.2119,-90.2783,447.5,8.3,11113222
BP,ioos:station:wmo:42369:2,2021-02-03T23:39:00Z,27.2118,-90.2782,447.1,8.3,11113222
BP,ioos:station:wmo:42369:2,2021-02-03T23:59:00Z,27.2118,-90.2780,447.1,8.3,11113222
BP,ioos:station:wmo:42369:2,2021-02-04T00:19:00Z,27.2116,-90.2779,446.7,8.3,11113222
BP,ioos:station:wmo:42369:2,2021-02-04T00:39:00Z,27.2116,-90.2778,447.3,8.4,11113222
BP,ioos:station:wmo:42369:2,2021-02-04T00:59:00Z,27.2115,-90.2779,447.3,8.4,11113222
BP,ioos:station:wmo:42369:2,2021-02-04T01:19:00Z,27.2115,-90.2779,446.5,8.4,11113222
BP,ioos:station:wmo:42369:2,2021-02-04T01:39:00Z,27.2114,-90.2778,446.6,8.4,11113222
BP,ioos:station:wmo:42369:2,2021-02-04T01:59:00Z,27.2114,-90.2777,446.5,8.4,11113222
BP,ioos:station:wmo:42369:2,2021-02-04T02:19:00Z,27.2113,-90.2777,446.6,8.5,11113222
BP,ioos:station:wmo:42369:2,2021-02-04T02:39:00Z,27.2113,-90.2775,446.9,8.6,11113222
BP,ioos:station:wmo:42369:2,2021-02-04T02:59:00Z,27.2113,-90.2775,446.9,8.6,11113222
BP,ioos:station:wmo:42369:2,2021-02-04T03:19:00Z,27.2113,-90.2775,446.8,8.6,11113222
BP,ioos:station:wmo:42369:2,2021-02-04T03:39:00Z,27.2114,-90.2777,447.1,8.6,11113222
BP,ioos:station:wmo:42369:2,2021-02-04T04:19:00Z,27.2116,-90.2780,446.5,8.6,11113222
BP,ioos:station:wmo:42369:2,2021-02-04T04:39:00Z,27.2117,-90.2780,447.5,8.7,11113222
BP,ioos:station:wmo:42369:2,2021-02-04T04:59:00Z,27.2118,-90.2781,446.8,8.6,11113222
BP,ioos:station:wmo:42369:2,2021-02-04T05:19:00Z,27.2118,-90.2782,446.3,8.6,11113222
BP,ioos:station:wmo:42369:2,2021-02-04T05:39:00Z,27.2119,-90.2783,446.7,8.6,11113222
BP,ioos:station:wmo:42369:2,2021-02-04T05:59:00Z,27.2120,-90.2785,446.9,8.5,11113222
BP,ioos:station:wmo:42369:2,2021-02-04T06:19:00Z,27.2121,-90.2786,446.6,8.6,11113222
BP,ioos:station:wmo:42369:2,2021-02-04T06:39:00Z,27.2122,-90.2787,446.4,8.5,11113222
BP,ioos:station:wmo:42369:2,2021-02-04T06:59:00Z,27.2122,-90.2788,446.3,8.6,11113222
BP,ioos:station:wmo:42369:2,2021-02-04T07:19:00Z,27.2123,-90.2790,447.1,8.6,11113222
BP,ioos:station:wmo:42369:2,2021-02-04T07:39:00Z,27.2124,-90.2792,446.6,8.6,11113222
BP,ioos:station:wmo:42369:2,2021-02-04T07:59:00Z,27.2125,-90.2794,446.4,8.6,11113222
BP,ioos:station:wmo:42369:2,2021-02-04T08:19:00Z,27.2126,-90.2796,446.9,8.6,11113222
BP,ioos:station:wmo:42369:2,2021-02-04T08:39:00Z,27.2127,-90.2799,446.8,8.6,11113222
BP,ioos:station:wmo:42369:2,2021-02-04T08:59:00Z,27.2128,-90.2802,447.1,8.6,11113222
BP,ioos:station:wmo:42369:2,2021-02-04T09:19:00Z,27.2129,-90.2806,447.1,8.5,11113222
BP,ioos:station:wmo:42369:2,2021-02-04T09:39:00Z,27.2130,-90.2808,446.7,8.4,11113222
BP,ioos:station:wmo:42369:2,2021-02-04T09:59:00Z,27.2130,-90.2811,447.2,8.6,11113222
BP,ioos:station:wmo:42369:2,2021-02-04T10:19:00Z,27.2131,-90.2813,447.0,8.5,11113222
BP,ioos:station:wmo:42369:2,2021-02-04T10:39:00Z,27.2131,-90.2815,446.5,8.4,11113222
BP,ioos:station:wmo:42369:2,2021-02-04T10:59:00Z,27.2131,-90.2817,447.3,8.4,11113222
BP,ioos:station:wmo:42369:2,2021-02-04T11:19:00Z,27.2131,-90.2817,447.5,8.4,11113222
BP,ioos:station:wmo:42369:2,2021-02-04T11:39:00Z,27.2131,-90.2818,446.7,8.4,11113222
BP,ioos:station:wmo:42369:2,2021-02-04T11:59:00Z,27.2131,-90.2818,446.9,8.4,11113222
BP,ioos:station:wmo:42369:2,2021-02-04T12:19:00Z,27.2131,-90.2817,447.0,8.4,11113222
BP,ioos:station:wmo:42369:2,2021-02-04T12:39:00Z,27.2131,-90.2817,447.4,8.5,11113222
BP,ioos:station:wmo:42369:2,2021-02-04T12:59:00Z,27.2131,-90.2817,447.2,8.5,11113222
BP,ioos:station:wmo:42369:2,2021-02-04T13:19:00Z,27.2131,-90.2819,447.1,8.6,11113222
BP,ioos:station:wmo:42369:2,2021-02-04T13:39:00Z,27.2131,-90.2819,446.9,8.6,11113222
BP,ioos:station:wmo:42369:2,2021-02-04T13:59:00Z,27.2132,-90.2819,446.5,8.5,11113222
BP,ioos:station:wmo:42369:2,2021-02-04T14:19:00Z,27.2132,-90.2818,446.7,8.6,11113222
BP,ioos:station:wmo:42369:2,2021-02-04T14:39:00Z,27.2132,-90.2816,447.3,8.5,11113222
BP,ioos:station:wmo:42369:2,2021-02-04T14:59:00Z,27.2132,-90.2815,447.1,8.5,11113222
BP,ioos:station:wmo:42369:2,2021-02-04T15:19:00Z,27.2132,-90.2815,447.2,8.6,11113222
BP,ioos:station:wmo:42369:2,2021-02-04T15:39:00Z,27.2132,-90.2815,447.2,8.6,11113222
BP,ioos:station:wmo:42369:2,2021-02-04T15:59:00Z,27.2132,-90.2815,447.3,8.6,11113222
BP,ioos:station:wmo:42369:2,2021-02-04T16:19:00Z,27.2132,-90.2812,446.9,8.6,11113222
BP,ioos:station:wmo:42369:2,2021-02-04T16:39:00Z,27.2133,-90.2810,447.5,8.6,11113222
BP,ioos:station:wmo:42369:2,2021-02-04T16:59:00Z,27.2133,-90.2808,448.2,8.5,11113222
BP,ioos:station:wmo:42369:2,2021-02-04T17:19:00Z,27.2133,-90.2806,448.5,8.6,11113222
BP,ioos:station:wmo:42369:2,2021-02-04T17:39:00Z,27.2133,-90.2806,448.3,8.5,11113222
BP,ioos:station:wmo:42369:2,2021-02-04T17:59:00Z,27.2133,-90.2805,448.8,8.5,11113222
BP,ioos:station:wmo:42369:2,2021-02-04T18:19:00Z,27.2133,-90.2803,448.9,8.5,11113222
BP,ioos:station:wmo:42369:2,2021-02-04T18:39:00Z,27.2133,-90.2803,448.4,8.5,11113222
BP,ioos:station:wmo:42369:2,2021-02-04T18:59:00Z,27.2133,-90.2801,448.9,8.5,11113222
BP,ioos:station:wmo:42369:2,2021-02-04T19:19:00Z,27.2133,-90.2799,448.8,8.5,11113222
BP,ioos:station:wmo:42369:2,2021-02-04T19:39:00Z,27.2132,-90.2798,448.5,8.5,11113222
BP,ioos:station:wmo:42369:2,2021-02-04T19:59:00Z,27.2131,-90.2795,449.2,8.5,11113222
BP,ioos:station:wmo:42369:2,2021-02-04T20:19:00Z,27.2130,-90.2793,448.9,8.5,11113222
BP,ioos:station:wmo:42369:2,2021-02-04T20:39:00Z,27.2129,-90.2791,448.6,8.5,11113222
BP,ioos:station:wmo:42369:2,2021-02-04T20:59:00Z,27.2129,-90.2790,448.6,8.6,11113222